LAOSAT 1

Last updated on Jan. 29, 2020, 4:37 a.m. UTC

1 41034U 15067A   20028.88396008 -.00000344  00000-0  00000-0 0  9997
2 41034   0.0066 273.4902 0002191   1.5486 299.2835  1.00271190 15498
UTC
Height (km)
Latitude
Longitude
Inclination
Orbital Period
UTC large
Height (km)
Speed (km/s)
/
Latitude / Longitude
Inclination (degrees)
Orbital Period (minutes)
Azimuth
Elevation
Range (km)
Doppler Factor
iOS Compass Heading
iOS Angle

Next 30 passes for location: Hong Kong

Rise time Rise Azimuth (degrees) Set time Set Azimuth (degrees) Duration Max altitude (degrees)

No matching passes for this satellites